When you browse on this site, cookies collect data to enhance your experience and personalize the content and advertising you see.
Visit our Privacy Policy to learn more. By continuing to use the site, you agree to this use of cookies and data.
  • In Schweiz
  • Länderverzeichnis
  • Für 7 Tage
  • Wassertemperatur
  • Satellitenkarten
  • Wetterkarte
  • Widgets
  • user-avatar
    Anmelden

    Stündliche Wetter Coburg

    Heute, 18 Juli, Donnerstag

    Zeit Temperatur Niederschläge Wind Luftdruck Luftfeuchtigkeit
    00:00 +14°C° 0 mm 1 m/S 732 mmHg 94%
    01:00 +13°C° 0 mm 1 m/S 732 mmHg 95%
    02:00 +12°C° 0 mm 0 m/S 732 mmHg 95%
    03:00 +12°C° 0 mm 0 m/S 732 mmHg 94%
    04:00 +11°C° 0 mm 0 m/S 732 mmHg 94%
    05:00 +13°C° 0 mm 0 m/S 732 mmHg 89%
    06:00 +15°C° 0 mm 0 m/S 732 mmHg 84%
    07:00 +17°C° 0 mm 0 m/S 732 mmHg 79%
    08:00 +20°C° 0 mm 1 m/S 732 mmHg 71%
    09:00 +22°C° 0 mm 1 m/S 733 mmHg 62%
    10:00 +24°C° 0 mm 2 m/S 733 mmHg 54%
    11:00 +25°C° 0 mm 2 m/S 733 mmHg 51%
    12:00 +25°C° 0 mm 3 m/S 732 mmHg 48%
    13:00 +26°C° 0 mm 3 m/S 732 mmHg 45%
    14:00 +26°C° 0 mm 3 m/S 732 mmHg 44%
    15:00 +26°C° 0 mm 3 m/S 732 mmHg 43%
    16:00 +27°C° 0 mm 2 m/S 732 mmHg 42%
    17:00 +25°C° 0 mm 2 m/S 732 mmHg 49%
    18:00 +24°C° 0 mm 1 m/S 732 mmHg 55%
    19:00 +23°C° 0 mm 1 m/S 732 mmHg 62%
    20:00 +22°C° 0 mm 1 m/S 732 mmHg 64%
    21:00 +20°C° 0 mm 1 m/S 732 mmHg 66%
    22:00 +17°C° 0 mm 0 m/S 732 mmHg 67%
    23:00 +17°C° 0.3 mm 0 m/S 732 mmHg 73%

    Morgen, 19 Juli, Freitag

    Zeit Temperatur Niederschläge Wind Luftdruck Luftfeuchtigkeit
    00:00 +16°C° 0.3 mm 0 m/S 732 mmHg 78%
    01:00 +15°C° 0.3 mm 0 m/S 732 mmHg 83%
    02:00 +15°C° 0.4 mm 0 m/S 733 mmHg 87%
    03:00 +15°C° 0.4 mm 0 m/S 733 mmHg 90%
    04:00 +15°C° 0.4 mm 1 m/S 733 mmHg 93%
    05:00 +16°C° 0.4 mm 1 m/S 733 mmHg 92%
    06:00 +18°C° 0.4 mm 1 m/S 733 mmHg 92%
    07:00 +18°C° 0.4 mm 1 m/S 734 mmHg 92%
    08:00 +20°C° 0.2 mm 1 m/S 734 mmHg 84%
    09:00 +20°C° 0.2 mm 2 m/S 734 mmHg 77%
    10:00 +23°C° 0.2 mm 2 m/S 734 mmHg 70%
    11:00 +23°C° 0.6 mm 2 m/S 734 mmHg 68%
    12:00 +24°C° 0.6 mm 2 m/S 734 mmHg 67%
    13:00 +25°C° 0.6 mm 3 m/S 734 mmHg 65%
    14:00 +25°C° 0.8 mm 2 m/S 734 mmHg 68%
    15:00 +25°C° 0.8 mm 2 m/S 734 mmHg 71%
    16:00 +24°C° 0.8 mm 2 m/S 734 mmHg 73%
    17:00 +24°C° 0.6 mm 2 m/S 734 mmHg 77%
    18:00 +23°C° 0.6 mm 1 m/S 734 mmHg 81%
    19:00 +20°C° 0.6 mm 0 m/S 734 mmHg 85%
    20:00 +19°C° 0 mm 0 m/S 734 mmHg 87%
    21:00 +18°C° 0 mm 0 m/S 734 mmHg 89%
    22:00 +17°C° 0 mm 0 m/S 734 mmHg 91%
    23:00 +16°C° 0 mm 0 m/S 734 mmHg 92%

    übermorgen, 20 Juli, Samstag

    Zeit Temperatur Niederschläge Wind Luftdruck Luftfeuchtigkeit
    00:00 +18°C° 0 mm 1 m/S 734 mmHg 93%
    01:00 +18°C° 0 mm 1 m/S 734 mmHg 94%
    02:00 +16°C° 0 mm 1 m/S 734 mmHg 95%
    03:00 +16°C° 0 mm 1 m/S 734 mmHg 95%
    04:00 +16°C° 0 mm 1 m/S 734 mmHg 95%
    05:00 +18°C° 0 mm 1 m/S 734 mmHg 93%
    06:00 +19°C° 0 mm 1 m/S 734 mmHg 91%
    07:00 +20°C° 0 mm 1 m/S 734 mmHg 89%
    08:00 +21°C° 0 mm 2 m/S 734 mmHg 79%
    09:00 +24°C° 0 mm 2 m/S 734 mmHg 68%
    10:00 +26°C° 0 mm 3 m/S 735 mmHg 58%
    11:00 +27°C° 0 mm 3 m/S 735 mmHg 54%
    12:00 +28°C° 0 mm 3 m/S 734 mmHg 51%
    13:00 +29°C° 0 mm 4 m/S 734 mmHg 47%
    14:00 +29°C° 0.4 mm 4 m/S 734 mmHg 51%
    15:00 +28°C° 0.4 mm 4 m/S 734 mmHg 54%
    16:00 +28°C° 0.4 mm 3 m/S 734 mmHg 58%
    17:00 +27°C° 0 mm 3 m/S 734 mmHg 61%
    18:00 +27°C° 0 mm 2 m/S 734 mmHg 64%
    19:00 +26°C° 0 mm 1 m/S 734 mmHg 68%
    20:00 +24°C° 0.2 mm 1 m/S 734 mmHg 74%
    21:00 +22°C° 0.2 mm 1 m/S 734 mmHg 80%
    22:00 +21°C° 0.2 mm 1 m/S 735 mmHg 87%
    23:00 +20°C° 0.3 mm 1 m/S 735 mmHg 89%

    21 Juli, Sonntag

    Zeit Temperatur Niederschläge Wind Luftdruck Luftfeuchtigkeit
    00:00 +20°C° 0.3 mm 1 m/S 735 mmHg 90%
    01:00 +19°C° 0.3 mm 1 m/S 735 mmHg 92%
    02:00 +19°C° 0.1 mm 1 m/S 735 mmHg 93%
    03:00 +19°C° 0.1 mm 1 m/S 735 mmHg 95%
    04:00 +18°C° 0.1 mm 1 m/S 735 mmHg 96%
    05:00 +19°C° 0 mm 1 m/S 735 mmHg 94%
    06:00 +20°C° 0 mm 1 m/S 736 mmHg 92%
    07:00 +21°C° 0 mm 1 m/S 736 mmHg 91%
    08:00 +21°C° 0.1 mm 2 m/S 737 mmHg 82%
    09:00 +24°C° 0.1 mm 3 m/S 737 mmHg 73%
    10:00 +25°C° 0.1 mm 4 m/S 738 mmHg 64%
    11:00 +26°C° 0 mm 4 m/S 738 mmHg 58%
    12:00 +27°C° 0 mm 4 m/S 738 mmHg 52%
    13:00 +28°C° 0 mm 5 m/S 738 mmHg 46%
    14:00 +28°C° 0 mm 4 m/S 738 mmHg 45%
    15:00 +28°C° 0 mm 4 m/S 738 mmHg 45%
    16:00 +28°C° 0 mm 4 m/S 738 mmHg 45%
    17:00 +27°C° 0 mm 3 m/S 738 mmHg 51%
    18:00 +25°C° 0 mm 2 m/S 739 mmHg 57%
    19:00 +24°C° 0 mm 1 m/S 739 mmHg 63%
    20:00 +23°C° 0 mm 1 m/S 739 mmHg 67%
    21:00 +21°C° 0 mm 1 m/S 739 mmHg 72%
    22:00 +19°C° 0 mm 1 m/S 739 mmHg 76%
    23:00 +19°C° 0 mm 1 m/S 739 mmHg 80%

    22 Juli, Montag

    Zeit Temperatur Niederschläge Wind Luftdruck Luftfeuchtigkeit
    00:00 +18°C° 0 mm 1 m/S 740 mmHg 83%
    01:00 +16°C° 0 mm 1 m/S 740 mmHg 86%
    02:00 +16°C° 0 mm 1 m/S 740 mmHg 88%
    03:00 +16°C° 0 mm 1 m/S 740 mmHg 89%
    04:00 +15°C° 0 mm 1 m/S 739 mmHg 91%
    05:00 +18°C° 0 mm 1 m/S 740 mmHg 85%
    06:00 +20°C° 0 mm 1 m/S 740 mmHg 78%
    07:00 +22°C° 0 mm 1 m/S 740 mmHg 72%
    08:00 +24°C° 0 mm 1 m/S 740 mmHg 64%
    09:00 +24°C° 0 mm 0 m/S 741 mmHg 56%
    10:00 +26°C° 0 mm 0 m/S 741 mmHg 48%
    11:00 +27°C° 0 mm 0 m/S 741 mmHg 45%
    12:00 +28°C° 0 mm 0 m/S 740 mmHg 41%
    13:00 +29°C° 0 mm 0 m/S 740 mmHg 38%
    14:00 +29°C° 0 mm 0 m/S 740 mmHg 37%
    15:00 +31°C° 0 mm 1 m/S 740 mmHg 37%
    16:00 +31°C° 0 mm 1 m/S 739 mmHg 37%
    17:00 +29°C° 0 mm 1 m/S 739 mmHg 45%
    18:00 +28°C° 0 mm 2 m/S 739 mmHg 53%
    19:00 +26°C° 0 mm 2 m/S 739 mmHg 61%
    20:00 +25°C° 0 mm 2 m/S 739 mmHg 65%
    21:00 +22°C° 0 mm 3 m/S 739 mmHg 69%
    22:00 +21°C° 0 mm 3 m/S 739 mmHg 73%
    23:00 +20°C° 0 mm 3 m/S 739 mmHg 76%

    23 Juli, Dienstag

    Zeit Temperatur Niederschläge Wind Luftdruck Luftfeuchtigkeit
    00:00 +19°C° 0 mm 2 m/S 739 mmHg 78%
    01:00 +18°C° 0 mm 2 m/S 739 mmHg 81%
    02:00 +18°C° 0 mm 2 m/S 739 mmHg 82%
    03:00 +18°C° 0 mm 2 m/S 739 mmHg 84%
    04:00 +17°C° 0 mm 2 m/S 739 mmHg 85%
    05:00 +19°C° 0 mm 2 m/S 739 mmHg 81%
    06:00 +20°C° 0 mm 2 m/S 739 mmHg 76%
    07:00 +21°C° 0 mm 2 m/S 739 mmHg 71%
    08:00 +24°C° 0 mm 2 m/S 739 mmHg 64%
    09:00 +26°C° 0 mm 2 m/S 739 mmHg 56%
    10:00 +28°C° 0 mm 2 m/S 739 mmHg 49%
    11:00 +30°C° 0 mm 2 m/S 739 mmHg 45%
    12:00 +31°C° 0 mm 2 m/S 738 mmHg 41%
    13:00 +32°C° 0 mm 2 m/S 738 mmHg 37%
    14:00 +32°C° 0 mm 2 m/S 738 mmHg 37%
    15:00 +32°C° 0 mm 2 m/S 737 mmHg 37%
    16:00 +33°C° 0 mm 3 m/S 737 mmHg 38%
    17:00 +30°C° 0 mm 3 m/S 737 mmHg 45%
    18:00 +28°C° 0 mm 3 m/S 737 mmHg 53%
    19:00 +26°C° 0 mm 4 m/S 737 mmHg 60%
    20:00 +25°C° 0 mm 3 m/S 737 mmHg 61%
    21:00 +22°C° 0 mm 3 m/S 737 mmHg 61%
    22:00 +20°C° 0 mm 3 m/S 737 mmHg 61%
    23:00 +19°C° 0 mm 2 m/S 737 mmHg 62%
    Mehr zeigen